User: anonymous   Login
Location: Trois-Rivi�res
(46.3500°N, 72.5500°W)
Time: 14:00:31
(UTC-04:00)
Language:

Cosmos 1975 - Orbit

View from above orbital plane
View from above orbital plane
View from above satellite
View from above satellite

Ground track
Ground track

The orbit data is extracted from the following two-line orbital elements,

1 19573U 88093A   15241.14331170  .00001602  00000-0  11707-3 0  9994
2 19573 082.5186 261.6345 0015319 024.1205 336.0734 15.02896480460927
Epoch (UTC): 29 August 2015 03:26:22
Eccentricity: 0.0015319
inclination: 82.5186°
perigee height: 547 km
apogee height: 568 km
right ascension of ascending node: 261.6345°
argument of perigee: 24.1205°
revolutions per day: 15.02896480
mean anomaly at epoch: 336.0734°
orbit number at epoch: 46092

The dashed part of the orbit path shows where the satellite is in the earth's shadow,  

DLR